Location: NJAA Observatory
(40.6819°N, 74.8979°W)
Time: 18:34:26
(UTC-04:00)

S-56A Canister/Altair - Visible Passes

Search period start: 24 September 2016 00:00
Search period end: 04 October 2016 00:00
Orbit: 640 x 2494 km, 38.9° (Epoch: 23 September)

Date Brightness Start Highest point End Pass type
(mag) Time Alt. Az. Time Alt. Az. Time Alt. Az.
24 Sep 8.9 19:04:40 10° WSW 19:11:53 78° S 19:23:06 10° E visible
24 Sep 9.2 21:08:10 10° W 21:17:10 75° SSW 21:21:34 46° ESE visible
24 Sep 10.2 23:12:26 10° W 23:18:59 38° WSW 23:18:59 38° WSW visible
25 Sep 9.1 20:35:56 10° W 20:44:20 76° S 20:50:33 34° ESE visible
25 Sep 9.9 22:39:56 10° W 22:47:58 47° SW 22:47:58 47° SW visible
26 Sep 9.0 20:03:45 10° W 20:11:35 78° S 20:19:36 23° ESE visible
26 Sep 9.6 22:07:32 10° W 22:16:53 52° SSW 22:17:01 52° SSW visible
27 Sep 11.2 00:13:20 10° W 00:14:26 13° W 00:14:26 13° W visible
27 Sep 8.9 19:31:35 10° W 19:38:54 79° S 19:48:41 15° ESE visible
27 Sep 9.5 21:35:13 10° W 21:44:02 55° SSW 21:46:07 50° S visible
27 Sep 10.9 23:40:30 10° W 23:43:32 18° WSW 23:43:32 18° WSW visible
28 Sep 8.8 18:59:29 10° W 19:06:17 79° S 19:16:52 10° E visible
28 Sep 9.4 21:02:57 10° W 21:11:15 57° SSW 21:15:16 41° SSE visible
28 Sep 10.6 23:07:47 10° W 23:12:42 24° WSW 23:12:42 24° WSW visible
29 Sep 9.2 20:30:44 10° W 20:38:31 60° SSW 20:44:29 30° SE visible
29 Sep 10.4 22:35:13 10° W 22:41:55 29° SW 22:41:55 29° SW visible
30 Sep 9.1 19:58:34 10° W 20:05:51 62° SSW 20:13:46 20° SE visible
30 Sep 10.2 22:02:44 10° W 22:10:43 32° SSW 22:11:13 32° SSW visible
01 Oct 9.0 19:26:27 10° W 19:33:15 64° SSW 19:43:08 12° ESE visible
01 Oct 10.0 21:30:21 10° W 21:37:59 34° SSW 21:40:35 31° S visible
02 Oct 8.8 18:54:21 10° W 19:00:43 67° SSW 19:10:28 10° ESE visible
02 Oct 9.9 20:58:03 10° W 21:05:18 36° SSW 21:10:03 26° SSE visible
02 Oct 11.1 23:05:49 10° WSW 23:07:30 12° SW 23:07:30 12° SW visible
03 Oct 9.7 20:25:48 10° W 20:32:41 38° SSW 20:39:36 18° SSE visible
03 Oct 11.0 22:32:35 10° WSW 22:37:05 14° SW 22:37:05 14° SW visible
